Hauptseite
METAR-TAF:

METAR-TAF

Flughäfen :

Militärflugplatz Emmen

Emmen, Schweiz

Breite: 47-05-32N, Länge: 8-18-16E, Höhe: 426 m

Beobachtung

Neuester Wetterbericht von vor 36 Minuten, um 00:20 UTC
Windstille
Temperatur 3°C
Luftfeuchtigkeit 100%
Luftdruck 1037 hPa
Sichtweite: 3700 m
Leicht bewölkt in der Höhe von 100 ft
Geschlossene Wolkendecke in der Höhe von 4700 ft

METAR: LSME 050020Z AUTO 00000KT 3700NDV FEW001 OVC047 03/03 Q1037 RMK

Zeit: 01:56 (00:56 UTC)


TAF: fehlend

Wetterbeobachtungen und Prognosen von mehr als 4000 Flughäfen (METAR und TAF Bericht).

Die verfügbaren Stationen werden durch gelbe und rote Markierungen auf der Karte dargestellt.

Führen Sie die Maus auf sie, um den Namen der Station zu sehen.

Darauf klicken, um die Beobachtung von Wetterbeobachtungen und Prognosen zu sehen.

Um die Karte zu ändern : klicken Sie auf den grünen Tasten mit einem schwarzen Kreuz Zum Vergrößern, auf den grünen Button mit einem Gedankenstrich zu verkleinern, oder auf die grünen Pfeile für benachbarte Karten.


METAR-TAF: